DECAYED

STARLINK-5323, 55279 (Decayed)

Orbit data source: Space-Track

STARLINK-5323, 55279 was a payload satellite owned by SpaceX/Seattle (US) in LEO that was launched on Thu, 19 Jan 2023 UTC via an FALCON 9 launch vehicle from the Air Force Western Test Range (AFWTR). Payload-class satellites include a variety of spacecraft equipped with specific instruments for various scientific and technological missions. These include communications satellites like Starlink; space stations such as the ISS; scientific satellites like the Hubble; Earth observation satellites from companies like Planet Labs, Umbra, and HawkEye 360; GPS; miniature CubeSats for education and research; and military/defense satellites.

Not visible in the next 10 days
Identifier
55279, 2023-010L
Orbit
Decayed
Country
Flag of USUS
Related business
Manufacturer
SpaceX/Seattle
Mission
Decayed Commercial Communications
Bus & Motor
STARLINK, Unknown motor
Mass
305 kg wet, ~290 kg dry
Launch date (UTC)
2023-01-19 (3 years ago)
Launch vehicle
FALCON 9
Launch site
Air Force Western Test Range (AFWTR)
Object type
Payload
Rocket body
Debris
Shape & HBR
Box + 1 Pan, 10.1 m
Radar Cross Section
13.562 m², Large (>1 m²)

Expand to show TLE details & history
Last TLE update: 11 months ago

TLE from 11 months ago
0 STARLINK-5323
1 55279U 23010L   25192.07310058  .08370401  44355-5  23893-3 0  9994
2 55279  69.9790 273.9713 0011319 266.9378 163.7195 16.44394149136757
Epoch: 2025-07-11T01:45Z
TLE epoch observation values (Epoch: 2025-07-11T01:45:15.890Z)
Latitude
62.58396°
Longitude
2.72759°
Altitude
171.361 km
Speed
7.806 km/s
True Right ascension
21h 13m 05s
True Declination
62° 25' 50"
Sunlit
Object was in daylight at epoch
Visualization orbit readout
Latitude
Unknown
Longitude
Unknown
Altitude
Unknown
Speed
Unknown
Apparent Right ascension
Unknown
Apparent Declination
Unknown
Sunlit
N/A
Visualization observer readout
Local Sidereal Time
21:33:12
Azimuth
Unknown
Elevation
Unknown
Doppler factor
Unknown
Orbital elements
Apogee altitude
159.35 km
Perigee altitude
144.567 km
Semi-major axis
6,530.095 km
Eccentricity
0.00113
Inclination
69.979°
RAAN
273.9713°
Arg. of periapsis
266.9378°
True anomaly
163.75581°
Mean anomaly
163.7195°
Eccentric anomaly
163.73766°
Mean motion
4.11305 °/min
Orbital period
87.53 mins
BSTAR
0.00023893
Loading maneuver chart data...
Computing Atmospheric mass density...
Loading historical data...
Loading historical data...
Loading historical data...
Loading historical data...
Loading historical data...
Loading historical data...
Loading historical data...

Documentation

Showing up to 5 results
|